VE3KSR Weather Reports


Display with metric or nautical units.
time (UTC)temp
F
wind
direction
speed
MPH
gust
MPH
rain 1hr
in
rain 24hr
in
rain mn
in
humidity
%
barometer
mb
20160925053649 46 0 0.0 0.0 1.58 0.00 0.00 88 1026.4
20160925053154 46 0 0.0 0.0 1.58 0.00 0.00 88 1026.2
20160925052650 46 0 0.0 0.0 1.58 0.00 0.00 88 1026.4
20160925052149 46 0 0.0 0.0 1.58 0.00 0.00 88 1026.4
20160925051651 46 0 0.0 0.0 1.58 0.00 0.00 88 1026.2
20160925051148 46 0 0.0 0.0 1.58 0.00 0.00 88 1026.2
20160925050651 46 0 0.0 0.0 1.58 0.00 0.00 88 1026.4
20160925050152 46 0 0.0 0.0 1.58 0.00 0.00 88 1026.4
20160925045649 47 0 0.0 0.0 1.58 0.00 0.00 88 1026.4
20160925045150 47 0 0.0 0.0 1.58 0.00 0.00 88 1026.4
20160925044649 47 0 0.0 0.0 1.58 0.00 0.00 88 1026.2
20160925044151 47 0 0.0 0.0 1.58 0.00 0.00 86 1026.2
20160925043653 47 0 0.0 0.0 1.58 0.00 0.00 86 1026.1
20160925043149 47 0 0.0 0.0 1.58 0.00 0.00 85 1026.1
20160925042651 47 0 0.0 0.0 1.58 0.00 0.00 85 1026.1
20160925042150 47 0 0.0 0.0 1.58 0.00 0.00 85 1026.1
20160925041650 47 0 0.0 0.0 1.58 0.00 0.00 85 1026.1
20160925041305 47 0 0.0 0.0 1.58 0.00 0.00 86 1026.0
20160925041151 47 0 0.0 0.0 1.58 0.00 0.00 86 1026.0
20160925040650 47 0 0.0 0.0 1.58 0.00 0.00 85 1025.9
20160925040151 47 0 0.0 0.0 1.58 0.00 0.00 84 1025.9
20160925035834 47 0 0.0 0.0 1.58 0.00 0.00 84 1025.9
20160925035649 47 0 0.0 0.0 1.58 0.00 0.00 84 1025.9
20160925035149 47 0 0.0 0.0 1.58 0.00 0.00 84 1025.7
20160925034649 47 0 0.0 0.0 1.58 0.00 0.00 84 1025.6
20160925034151 47 0 0.0 0.0 1.58 0.00 0.00 83 1025.7
20160925033649 47 0 0.0 0.0 1.58 0.00 0.00 84 1025.7
20160925033149 46 0 0.0 0.0 1.58 0.00 0.00 83 1025.6
20160925032650 47 0 0.0 0.0 1.58 0.00 0.00 83 1025.6
20160925032346 48 0 0.0 0.0 1.58 0.00 0.00 82 1025.7
20160925032149 48 0 0.0 0.0 1.58 0.00 0.00 82 1025.7
20160925031649 48 0 0.0 0.0 1.58 0.00 0.00 74 1025.6
20160925031151 48 0 0.0 0.0 1.58 0.00 0.00 82 1025.4
20160925030649 48 0 0.0 0.0 1.58 0.00 0.00 81 1025.4
20160925030150 48 0 0.0 0.0 1.58 0.00 0.00 81 1025.4
20160925025649 49 0 0.0 0.0 1.58 0.00 0.00 80 1025.2
20160925025150 49 0 0.0 0.0 1.58 0.00 0.00 80 1025.3
20160925024649 49 0 0.0 0.0 1.58 0.00 0.00 80 1025.3
20160925024149 50 0 0.0 0.0 1.58 0.00 0.00 79 1025.2
20160925023651 50 0 0.0 0.0 1.58 0.00 0.00 79 1025.2
20160925023150 50 0 0.0 0.0 1.58 0.00 0.00 79 1025.2
20160925022649 50 0 0.0 0.0 1.58 0.00 0.00 79 1025.1
20160925022150 50 0 0.0 0.0 1.58 0.00 0.00 78 1025.1
20160925021649 50 0 0.0 0.0 1.58 0.00 0.00 78 1025.0
20160925021149 50 0 0.0 0.0 1.58 0.00 0.00 78 1025.0
20160925020649 50 0 0.0 0.0 1.58 0.00 0.00 77 1024.9
20160925020149 51 0 0.0 0.0 1.58 0.00 0.00 77 1024.8
20160925015650 51 0 0.0 0.0 1.58 0.00 0.00 77 1024.9
20160925015149 51 0 0.0 0.0 1.58 0.00 0.00 76 1024.8
20160925014650 51 0 0.0 0.0 1.58 0.00 0.00 76 1024.8
20160925014150 51 0 0.0 0.0 1.58 0.00 0.00 75 1024.9
20160925013649 51 0 0.0 0.0 1.58 0.00 0.00 74 1024.8
20160925013150 52 0 0.0 0.0 1.58 0.00 0.00 74 1024.7
20160925012649 52 0 0.0 0.0 1.58 0.00 0.00 74 1024.7
20160925012153 52 0 0.0 0.0 1.58 0.00 0.00 73 1024.6
20160925011649 53 0 0.0 0.0 1.58 0.00 0.00 72 1024.6
20160925011150 54 0 0.0 0.0 1.58 0.00 0.00 70 1024.5
20160925010649 54 0 0.0 0.0 1.58 0.00 0.00 69 1024.5
20160925010149 55 0 0.0 0.0 1.58 0.00 0.00 66 1024.3
20160925005649 56 0 0.0 0.0 1.58 0.00 0.00 64 1024.3
20160925005149 56 0 0.0 0.0 1.58 0.00 0.00 63 1024.4
20160925004649 56 0 0.0 0.0 1.58 0.00 0.00 62 1024.4
20160925004237 57 0 0.0 0.0 1.58 0.00 0.00 61 1024.3
20160925004149 57 0 0.0 0.0 1.58 0.00 0.00 61 1024.3
20160925003649 57 0 0.0 0.0 1.58 0.00 0.00 60 1024.3
20160925003150 57 0 0.0 0.0 1.58 0.00 0.00 60 1024.2
20160925002649 56 0 0.0 0.0 1.58 0.00 0.00 61 1024.3
20160925002149 56 0 0.0 0.0 1.58 0.00 0.00 61 1024.2
20160925001649 56 0 0.0 0.0 1.58 0.00 0.00 61 1024.2
20160925001150 56 0 0.0 0.0 1.58 0.00 0.00 61 1024.2
20160925000649 56 0 0.0 0.0 1.58 0.00 0.00 61 1024.2
20160925000149 55 0 0.0 0.0 1.58 0.00 0.00 61 1024.2
20160924235652 56 0 0.0 0.0 1.58 0.00 0.00 61 1024.3
20160924235152 56 0 0.0 0.0 1.58 0.00 0.00 59 1024.2
20160924234650 55 0 0.0 0.0 1.58 0.00 0.00 59 1024.2
20160924234149 56 0 0.0 0.0 1.58 0.00 0.00 59 1024.2
20160924233649 56 0 0.0 0.0 1.58 0.00 0.00 59 1024.2
20160924233149 56 0 0.0 0.0 1.58 0.00 0.00 59 1024.1
20160924232649 57 0 0.0 0.0 1.58 0.00 0.00 59 1024.1
20160924232149 58 0 0.0 0.0 1.58 0.00 0.00 58 1024.2
20160924231649 58 0 0.0 0.0 1.58 0.00 0.00 59 1024.1
20160924231151 58 0 0.0 0.0 1.58 0.00 0.00 58 1024.1
20160924230649 58 0 0.0 0.0 1.58 0.00 0.00 58 1024.1
20160924230149 58 0 0.0 0.0 1.58 0.00 0.00 58 1024.1
20160924225649 58 0 0.0 0.0 1.58 0.00 0.00 58 1024.1
20160924225149 59 0 0.0 0.0 1.58 0.00 0.00 58 1024.2
20160924224649 59 0 0.0 0.0 1.58 0.00 0.00 59 1024.3
20160924224149 59 0 0.0 0.0 1.58 0.00 0.00 60 1024.2
20160924223650 59 0 0.0 0.0 1.58 0.00 0.00 58 1024.2
20160924223150 59 0 0.0 0.0 1.58 0.00 0.00 59 1024.3
20160924222650 59 0 0.0 0.0 1.58 0.00 0.00 58 1024.4
20160924222149 59 0 0.0 0.0 1.58 0.00 0.00 57 1024.3
20160924221649 59 0 0.0 0.0 1.58 0.00 0.00 58 1024.3
20160924221149 59 0 0.0 0.0 1.58 0.00 0.00 57 1024.3
20160924220650 59 0 0.0 0.0 1.58 0.00 0.00 56 1024.3
20160924215650 60 0 0.0 0.0 1.58 0.00 0.00 57 1024.3
20160924215150 60 0 0.0 0.0 1.58 0.00 0.00 56 1024.4
20160924214650 59 0 0.0 0.0 1.58 0.00 0.00 56 1024.3
20160924214150 60 0 0.0 0.0 1.58 0.00 0.00 56 1024.3
20160924213650 59 0 0.0 0.0 1.58 0.00 0.00 55 1024.4
20160924213150 59 0 0.0 0.0 1.58 0.00 0.00 55 1024.4
20160924212650 60 0 0.0 0.0 1.58 0.00 0.00 56 1024.4
20160924212150 60 0 0.0 0.0 1.58 0.00 0.00 54 1024.5
20160924211650 60 0 0.0 0.0 1.58 0.00 0.00 54 1024.5
20160924211150 60 0 0.0 0.0 1.58 0.00 0.00 56 1024.6
20160924210650 60 0 0.0 0.0 1.58 0.00 0.00 55 1024.7
20160924210150 60 0 0.0 0.0 1.58 0.00 0.00 55 1024.7
20160924205650 60 0 0.0 0.0 1.58 0.00 0.00 56 1024.7
20160924205150 59 0 0.0 0.0 1.58 0.00 0.00 54 1024.7
20160924204650 60 0 0.0 0.0 1.58 0.00 0.00 56 1024.9
20160924204150 60 0 0.0 0.0 1.58 0.00 0.00 56 1025.0
20160924203650 60 0 0.0 0.0 1.58 0.00 0.00 57 1024.9
20160924203150 60 0 0.0 0.0 1.58 0.00 0.00 57 1025.0
20160924202650 60 0 0.0 0.0 1.58 0.00 0.00 57 1025.1
20160924202151 60 0 0.0 0.0 1.58 0.00 0.00 57 1024.9
20160924201650 60 0 0.0 0.0 1.58 0.00 0.00 58 1025.1
20160924201151 60 0 0.0 0.0 1.58 0.00 0.00 58 1025.2
20160924200651 59 0 0.0 0.0 1.58 0.00 0.00 60 1025.2
20160924200150 59 0 0.0 0.0 1.58 0.00 0.00 59 1025.2
20160924195650 59 0 0.0 0.0 1.58 0.00 0.00 58 1025.3
20160924195150 59 0 0.0 0.0 1.58 0.00 0.00 57 1025.3
20160924194650 59 0 0.0 0.0 1.58 0.00 0.00 58 1025.3
20160924194150 59 0 0.0 0.0 1.58 0.00 0.00 60 1025.3
20160924193650 59 0 0.0 0.0 1.58 0.00 0.00 61 1025.3
20160924193150 59 0 0.0 0.0 1.58 0.00 0.00 58 1025.3
20160924191650 59 0 0.0 0.0 1.58 0.00 0.00 61 1025.6
20160924191150 59 0 0.0 0.0 1.58 0.00 0.00 61 1025.7
20160924190650 58 0 0.0 0.0 1.58 0.00 0.00 61 1025.8
20160924190150 58 0 0.0 0.0 1.58 0.00 0.00 63 1025.9
20160924185650 58 0 0.0 0.0 1.58 0.00 0.00 62 1025.9
20160924185150 58 0 0.0 0.0 1.58 0.00 0.00 61 1026.1
20160924184650 58 0 0.0 0.0 1.58 0.00 0.00 61 1026.1
20160924184150 58 0 0.0 0.0 1.58 0.00 0.00 62 1026.2
20160924183654 58 0 0.0 0.0 1.58 0.00 0.00 62 1026.2
20160924183150 58 0 0.0 0.0 1.58 0.00 0.00 64 1026.4
20160924182650 58 0 0.0 0.0 1.58 0.00 0.00 63 1026.4
20160924182150 58 0 0.0 0.0 1.58 0.00 0.00 64 1026.2
20160924181650 58 0 0.0 0.0 1.58 0.00 0.00 64 1026.4
20160924181150 57 0 0.0 0.0 1.58 0.00 0.00 64 1026.5
20160924180651 57 0 0.0 0.0 1.58 0.00 0.00 63 1026.7
20160924180151 57 0 0.0 0.0 1.58 0.00 0.00 65 1026.7
20160924175650 57 0 0.0 0.0 1.58 0.00 0.00 65 1026.8
20160924175151 57 0 0.0 0.0 1.58 0.00 0.00 67 1026.8
20160924174650 57 0 0.0 0.0 1.58 0.00 0.00 68 1027.0
20160924174150 57 0 0.0 0.0 1.58 0.00 0.00 67 1027.1
20160924173651 56 0 0.0 0.0 1.58 0.00 0.00 64 1027.3
20160924173150 57 0 0.0 0.0 1.58 0.00 0.00 66 1027.1
20160924172650 57 0 0.0 0.0 1.58 0.00 0.00 66 1027.1
20160924172150 56 0 0.0 0.0 1.58 0.00 0.00 67 1027.3
20160924171650 56 0 0.0 0.0 1.58 0.00 0.00 67 1027.4
20160924171151 56 0 0.0 0.0 1.58 0.00 0.00 67 1027.5
20160924170650 56 0 0.0 0.0 1.58 0.00 0.00 68 1027.5
20160924170151 55 0 0.0 0.0 1.58 0.00 0.00 70 1027.6
20160924165652 55 0 0.0 0.0 1.58 0.00 0.00 70 1027.7
20160924164650 55 0 0.0 0.0 1.58 0.00 0.00 71 1028.1
20160924164150 55 0 0.0 0.0 1.58 0.00 0.00 73 1028.1
20160924163650 55 0 0.0 0.0 1.58 0.00 0.00 73 1028.3
20160924163150 55 0 0.0 0.0 1.58 0.00 0.00 75 1028.3
20160924162651 55 0 0.0 0.0 1.58 0.00 0.00 73 1028.4
20160924162150 55 0 0.0 0.0 1.58 0.00 0.00 74 1028.5
20160924161651 54 0 0.0 0.0 1.58 0.00 0.00 73 1028.5
20160924161150 54 0 0.0 0.0 1.58 0.00 0.00 73 1028.6
20160924160650 54 0 0.0 0.0 1.58 0.00 0.00 76 1028.5
20160924160152 54 0 0.0 0.0 1.58 0.00 0.00 77 1028.5
20160924155650 54 0 0.0 0.0 1.58 0.00 0.00 76 1028.6
20160924155150 53 0 0.0 0.0 1.58 0.00 0.00 77 1028.7
20160924154653 53 0 0.0 0.0 1.58 0.00 0.00 78 1028.6
20160924154152 53 0 0.0 0.0 1.58 0.00 0.00 79 1028.5
20160924153650 53 0 0.0 0.0 1.58 0.00 0.00 79 1028.6
20160924153151 53 0 0.0 0.0 1.58 0.00 0.00 79 1028.8
20160924152650 53 0 0.0 0.0 1.58 0.00 0.00 80 1028.8
20160924152150 52 0 0.0 0.0 1.58 0.00 0.00 81 1028.8
20160924151654 52 0 0.0 0.0 1.58 0.00 0.00 79 1028.9
20160924151150 52 0 0.0 0.0 1.58 0.00 0.00 81 1028.7
20160924150650 52 0 0.0 0.0 1.58 0.00 0.00 81 1028.6
20160924150150 52 0 0.0 0.0 1.58 0.00 0.00 82 1028.6
20160924145654 52 0 0.0 0.0 1.58 0.00 0.00 82 1028.6
20160924145151 52 0 0.0 0.0 1.58 0.00 0.00 83 1028.5
20160924144650 52 0 0.0 0.0 1.58 0.00 0.00 85 1028.5
20160924144150 51 0 0.0 0.0 1.58 0.00 0.00 85 1028.5
20160924143650 51 0 0.0 0.0 1.58 0.00 0.00 85 1028.5
20160924143151 51 0 0.0 0.0 1.58 0.00 0.00 86 1028.4
20160924142651 51 0 0.0 0.0 1.58 0.00 0.00 85 1028.5
20160924142150 51 0 0.0 0.0 1.58 0.00 0.00 87 1028.4
20160924141822 50 0 0.0 0.0 1.58 0.00 0.00 87 1028.4
20160924141650 50 0 0.0 0.0 1.58 0.00 0.00 87 1028.4
20160924141152 50 0 0.0 0.0 1.58 0.00 0.00 89 1028.4
20160924140650 50 0 0.0 0.0 1.58 0.00 0.00 89 1028.3
20160924140151 50 0 0.0 0.0 1.58 0.00 0.00 90 1028.3
20160924135652 50 0 0.0 0.0 1.58 0.00 0.00 90 1028.3
20160924135151 50 0 0.0 0.0 1.58 0.00 0.00 90 1028.2
20160924134653 49 0 0.0 0.0 1.58 0.00 0.00 91 1028.3
20160924134151 49 0 0.0 0.0 1.58 0.00 0.00 92 1028.4
20160924133651 49 0 0.0 0.0 1.58 0.00 0.00 92 1028.5
20160924133151 48 0 0.0 0.0 1.58 0.00 0.00 93 1028.1
20160924132650 48 0 0.0 0.0 1.58 0.00 0.00 93 1028.3
20160924132151 48 0 0.0 0.0 1.58 0.00 0.00 93 1028.3
20160924131651 47 0 0.0 0.0 1.58 0.00 0.00 93 1028.4
20160924131151 47 0 0.0 0.0 1.58 0.00 0.00 94 1028.3
20160924130651 47 0 0.0 0.0 1.58 0.00 0.00 94 1028.2
20160924125651 46 0 0.0 0.0 1.58 0.00 0.00 95 1028.1
20160924125151 46 0 0.0 0.0 1.58 0.00 0.00 95 1027.9
20160924124652 46 0 0.0 0.0 1.58 0.00 0.00 95 1028.0
20160924124151 46 0 0.0 0.0 1.58 0.00 0.00 95 1027.9
20160924123652 46 0 0.0 0.0 1.58 0.00 0.00 95 1028.0
20160924123151 46 0 0.0 0.0 1.58 0.00 0.00 95 1027.7
20160924122651 46 0 0.0 0.0 1.58 0.00 0.00 95 1027.8
20160924122152 45 0 0.0 0.0 1.58 0.00 0.00 96 1028.0
20160924121654 45 0 0.0 0.0 1.58 0.00 0.00 95 1027.5
20160924121152 45 0 0.0 0.0 1.58 0.00 0.00 96 1027.7
20160924120651 45 0 0.0 0.0 1.58 0.00 0.00 95 1027.7
20160924120151 45 0 0.0 0.0 1.58 0.00 0.00 95 1027.7
20160924115652 45 0 0.0 0.0 1.58 0.00 0.00 95 1027.7
20160924115152 45 0 0.0 0.0 1.58 0.00 0.00 95 1027.6
20160924114838 45 0 0.0 0.0 1.58 0.00 0.00 95 1027.5
20160924114651 45 0 0.0 0.0 1.58 0.00 0.00 95 1027.5
20160924114151 45 0 0.0 0.0 1.58 0.00 0.00 95 1027.6
20160924113651 45 0 0.0 0.0 1.58 0.00 0.00 96 1027.5
20160924113151 45 0 0.0 0.0 1.58 0.00 0.00 95 1027.1
20160924112652 45 0 0.0 0.0 1.58 0.00 0.00 96 1027.2
20160924112151 45 0 0.0 0.0 1.58 0.00 0.00 96 1027.0
20160924111653 44 0 0.0 0.0 1.58 0.00 0.00 96 1027.2
20160924111153 45 0 0.0 0.0 1.58 0.00 0.00 96 1026.8
20160924110653 44 0 0.0 0.0 1.58 0.00 0.00 96 1026.7
20160924110153 44 0 0.0 0.0 1.58 0.00 0.00 96 1026.7
20160924105652 45 0 0.0 0.0 1.58 0.00 0.00 96 1026.8
20160924105152 45 0 0.0 0.0 1.58 0.00 0.00 96 1026.5
20160924104651 45 0 0.0 0.0 1.58 0.00 0.00 95 1026.6
20160924104152 45 0 0.0 0.0 1.58 0.00 0.00 96 1026.5
20160924103651 45 0 0.0 0.0 1.58 0.00 0.00 96 1026.2
20160924103151 45 0 0.0 0.0 1.58 0.00 0.00 95 1026.5
20160924102652 45 0 0.0 0.0 1.58 0.00 0.00 95 1025.9
20160924102154 45 0 0.0 0.0 1.58 0.00 0.00 95 1026.4
20160924101651 45 0 0.0 0.0 1.58 0.00 0.00 95 1026.1
20160924101151 45 0 0.0 0.0 1.58 0.00 0.00 95 1025.9
20160924100651 45 0 0.0 0.0 1.58 0.00 0.00 95 1026.0
20160924100153 45 0 0.0 0.0 1.58 0.00 0.00 95 1025.8
20160924095651 45 0 0.0 0.0 1.58 0.00 0.00 95 1025.6
20160924095151 45 0 0.0 0.0 1.58 0.00 0.00 95 1025.7
20160924094651 45 0 0.0 0.0 1.58 0.00 0.00 95 1025.6
20160924094153 46 0 0.0 0.0 1.58 0.00 0.00 95 1025.7
20160924093651 46 0 0.0 0.0 1.58 0.00 0.00 95 1025.5
20160924093154 46 0 0.0 0.0 1.58 0.00 0.00 95 1025.6
20160924092654 46 0 0.0 0.0 1.58 0.00 0.00 95 1025.6
20160924092152 46 0 0.0 0.0 1.58 0.00 0.00 95 1025.4
20160924091845 46 0 0.0 0.0 1.58 0.00 0.00 95 1025.5
20160924091752 46 0 0.0 0.0 1.58 0.00 0.00 95 1025.5
20160924091652 46 0 0.0 0.0 1.58 0.00 0.00 95 1025.5
20160924091151 46 0 0.0 0.0 1.58 0.00 0.00 95 1025.4
20160924090651 46 0 0.0 0.0 1.58 0.00 0.00 95 1025.4
20160924090154 46 0 0.0 0.0 1.58 0.00 0.00 95 1025.3
20160924085652 46 0 0.0 0.0 1.58 0.00 0.00 95 1025.1
20160924085151 46 0 0.0 0.0 1.58 0.00 0.00 95 1024.9
20160924084652 46 0 0.0 0.0 1.58 0.00 0.00 96 1025.3
20160924084151 46 0 0.0 0.0 1.58 0.00 0.00 96 1025.1
20160924083651 46 0 0.0 0.0 1.58 0.00 0.00 96 1025.1
20160924083152 46 0 0.0 0.0 1.58 0.00 0.00 96 1024.9
20160924082652 46 0 0.0 0.0 1.58 0.00 0.00 96 1024.9
20160924082152 47 0 0.0 0.0 1.58 0.00 0.00 96 1024.8
20160924081651 47 0 0.0 0.0 1.58 0.00 0.00 96 1024.9
20160924081153 47 0 0.0 0.0 1.58 0.00 0.00 96 1024.8
20160924080652 47 0 0.0 0.0 1.58 0.00 0.00 96 1024.7
20160924080151 47 0 0.0 0.0 1.58 0.00 0.00 96 1024.7
20160924075652 47 0 0.0 0.0 1.58 0.00 0.00 96 1024.7
20160924075151 47 0 0.0 0.0 1.58 0.00 0.00 95 1024.5
20160924074651 47 0 0.0 0.0 1.58 0.00 0.00 95 1024.3
20160924074152 47 0 0.0 0.0 1.58 0.00 0.00 96 1024.2
20160924073652 47 0 0.0 0.0 1.58 0.00 0.00 96 1024.2
20160924073151 47 0 0.0 0.0 1.58 0.00 0.00 96 1024.2
20160924072652 47 0 0.0 0.0 1.58 0.00 0.00 95 1024.4
20160924072151 47 0 0.0 0.0 1.58 0.00 0.00 95 1024.3
20160924071652 47 0 0.0 0.0 1.58 0.00 0.00 95 1024.4
20160924071155 47 0 0.0 0.0 1.58 0.00 0.00 95 1024.0
20160924070654 47 0 0.0 0.0 1.58 0.00 0.00 95 1024.0
20160924070152 47 0 0.0 0.0 1.58 0.00 0.00 95 1024.1
20160924065651 47 0 0.0 0.0 1.58 0.00 0.00 95 1024.0
20160924065153 47 0 0.0 0.0 1.58 0.00 0.00 95 1024.0
20160924064652 48 0 0.0 0.0 1.58 0.00 0.00 95 1024.0
20160924064154 47 0 0.0 0.0 1.58 0.00 0.00 95 1023.7
20160924063655 47 0 0.0 0.0 1.58 0.00 0.00 95 1023.9
20160924063152 48 0 0.0 0.0 1.58 0.00 0.00 95 1023.8
20160924062656 48 0 0.0 0.0 1.58 0.00 0.00 95 1023.7
20160924062152 48 0 0.0 0.0 1.58 0.00 0.00 95 1023.9
20160924061651 48 0 0.0 0.0 1.58 0.00 0.00 95 1023.7
20160924061153 48 0 0.0 0.0 1.58 0.00 0.00 95 1023.7
20160924060746 48 0 0.0 0.0 1.58 0.00 0.00 95 1023.7
20160924060651 48 0 0.0 0.0 1.58 0.00 0.00 95 1023.7
20160924060151 48 0 0.0 0.0 1.58 0.00 0.00 95 1023.7
20160924055655 48 0 0.0 0.0 1.58 0.00 0.00 95 1023.2
20160924055153 48 0 0.0 0.0 1.58 0.00 0.00 95 1023.2
20160924054652 48 0 0.0 0.0 1.58 0.00 0.00 95 1023.3
20160924054152 48 0 0.0 0.0 1.58 0.00 0.00 95 1023.4